TITAN 3C TRANSTAGE R/B, 2222

Orbit data source: Space-Track

TITAN 3C TRANSTAGE R/B, 2222 is space debris in GEO originally from a launch on Thu, 16 Jun 1966 UTC launched from the Air Force Eastern Test Range (AFETR). Debris objects in space refer to the collection of defunct objects orbiting the Earth. Examples of debris include non-operational satellites, rocket bodies, and fragments generated from explosions, collisions, or faulty payload assembly.

Not visible in the next 10 days
TITAN 3C TRANSTAGE R/B details
Identifier
2222, 1966-053J
Orbit
GEO
Last TLE update19 hours ago
Origin
Flag of USUSAF SSD (US)
ManufacturerMartin Marietta
MissionSpacecraft
Bus & MotorTRANSTAGE, Unknown motor
Mass2,050 kg wet, 2,050 kg dry
Launch date (UTC)
1966-06-16 (59 years ago)
Launch vehicleUnknown
Launch site
Air Force Eastern Test Range (AFETR)
Object type
Payload
Rocket body
Debris
Shape & HBRCyl + 2 Nozzle, 4.6 m
Radar Cross Section14.974 m², Large (>1 m²)

Expand to show TLE details & history

TLE from 19 hours ago
0 TITAN 3C TRANSTAGE R/B
1 02222U 66053J   25044.82569111 -.00000104  00000-0  00000-0 0  9992
2 02222   7.4399  52.4085 0161767 156.9064 222.9918  1.06720879125174
Epoch: 2025-02-13T19:48Z
Definitive object data (Epoch: 2025-02-13T19:48:59.711Z)
Latitude2.35946°
Longitude-10.41021°
Altitude34,549.418 km
Speed3.102 km/s
True Right ascension04h 43m 44s
True Declination2° 21' 25"
Sunlit
Object was in daylight at TLE epoch
Visualization TLE readout
Latitude-4.32872°
Longitude-64.1462°
Altitude34,708.123 km
Speed3.09 km/s
Apparent Right ascension01h 32m 19s
Apparent Declination-9° 24' 21"
Sunlit
Object is in daylight
Visualization observer readout
Local Sidereal Time17:28:21
Azimuth76.655° E
Elevation-29.636°
Doppler factor1
Orbital elements
Apogee altitude34,725.774 km
Perigee altitude33,417.093 km
Semi-major axis40,449.57 km
Eccentricity0.0161767
Inclination7.4399°
RAAN52.4085°
Arg. of periapsis156.9064°
True anomaly221.7463°
Mean anomaly222.9918°
Eccentric anomaly222.36721°
Mean motion0.26679 °/min
BSTARUnknown
Orbital period1349.37 mins
Loading historical data...
2222 neighbors
Authenticating...
Loading maneuver chart data...
Loading historical data...
Loading historical data...
Loading historical data...
Loading historical data...
Loading historical data...
Loading historical data...
Loading historical data...

TITAN 3C TRANSTAGE R/B Visibility forecast

Observer location: undefined°, undefined

TITAN 3C TRANSTAGE R/B is not visible in the next 10 days
Span
Click to sort rows by Start time (UTC) header in descending order
Start Az.
Max El. time (UTC)
Max El. Az.
Max El.
End time (UTC)
End Az.
|